Flag for Madagascar Weather past 2 weeks in Toamasina, Madagascar

Now
64 °F

Light rain. Partly cloudy.


Feels Like: 64 °F
Forecast: 63 / 70 °F
Wind: 7 mph from Southwest

Location: Tamatave

Current Time: Aug 3, 2015 at 12:24:26 AM

Latest Report: Aug 3, 2015 at 12:00 AM


Visibility: 4 mi

Pressure: 30.21 "Hg

Humidity: 94%

Dew point: 63 °F

Location of ToamasinaLocation

Historic Weather in Toamasina — Graph

°F

Toamasina temperature yesterday

Maximum temperature yesterday: 75 °F (at 7:00 AM)
Minimum temperature yesterday: 64 °F (at 5:00 PM)
Average temperature yesterday: 70 °F

Past Weeks' High & Low Weather Summary

 TemperatureHumidityPressure
High81 °F (Jul 19, 11:00 AM)100% (Jul 19, 12:00 AM)30.24 "Hg (Jul 19, 12:00 AM)
Low63 °F (Jul 26, 5:00 AM)42% (Jul 26, 11:00 AM)29.95 "Hg (Aug 1, 3:00 PM)
Average71 °F84%30.13 "Hg
* Reported Jul 18 11:00 PM — Aug 2 11:00 PM, Toamasina, Weather by CustomWeather, © 2015

Note: Actual official high and low records may vary slightly from our data, if they occured in-between our weather recording intervals... More about our weather records

Advertising

Toamasina weather history for previous 24 hours

 ConditionsComfort  
Time TempWeatherWind HumidityBarometerVisibility
11:00 PM
Sun, Aug 2
64 °FLight rain. Partly cloudy.7 mph94%30.21 "Hg4 mi
10:00 PM64 °FLight rain. Partly cloudy.7 mph94%30.21 "Hg4 mi
9:00 PM66 °FLight rain. Partly cloudy.7 mph94%30.21 "Hg4 mi
8:00 PM64 °FLight rain. Partly cloudy.7 mph100%30.21 "Hg4 mi
7:00 PM64 °FLight rain. Partly cloudy.7 mph100%30.21 "Hg4 mi
6:00 PM64 °FLight rain. Partly cloudy.7 mph100%30.18 "Hg4 mi
5:00 PM64 °FLight rain. Broken clouds.9 mph100%30.18 "Hg2 mi
4:00 PM68 °FRain. Broken clouds.7 mph94%30.15 "Hg1 mi
3:00 PM68 °FLight rain. Broken clouds.7 mph94%30.15 "Hg4 mi
2:00 PM72 °FLight rain. Broken clouds.7 mph83%30.15 "HgN/A
1:00 PM70 °FLight rain. Broken clouds.14 mph94%30.18 "Hg2 mi
12:00 PM70 °FLight rain. Broken clouds.16 mph94%30.18 "Hg2 mi
11:00 AM72 °FLight rain. Broken clouds.16 mph94%30.21 "Hg2 mi
10:00 AM75 °FScattered showers. Broken clouds.14 mph78%30.18 "HgN/A
9:00 AM75 °FScattered showers. Broken clouds.14 mph78%30.15 "HgN/A
8:00 AM75 °FLight rain. Broken clouds.14 mph69%30.15 "Hg5 mi
7:00 AM75 °FScattered showers. Broken clouds.12 mph83%30.12 "HgN/A
6:00 AM72 °FScattered showers. Partly cloudy.9 mph88%30.09 "HgN/A
5:00 AM72 °FScattered showers. Partly cloudy.7 mph94%30.07 "HgN/A
4:00 AM72 °FScattered showers. Partly cloudy.7 mph94%30.07 "HgN/A
3:00 AM72 °FScattered showers. Partly cloudy.7 mph94%30.07 "HgN/A
2:00 AM70 °FScattered showers. Partly cloudy.No wind94%30.07 "HgN/A
1:00 AM70 °FScattered showers. Partly cloudy.No wind94%30.07 "HgN/A
12:00 AM70 °FScattered showers. Partly cloudy.No wind100%30.07 "HgN/A
Weather by CustomWeather, © 2015

See weather overviewHow to use our weather pages